Torna al catalogo

BREEZE-M DEB

LostHEO
NORAD 34258·DEBRIS·🇷🇺 Russia

Lanciato Feb 28, 2006 da Baikonur Cosmodrome

Loading…

Prossimi Passaggi (prossime 24 ore)

TLE

ObsoletoSource: Space-Track

Epoca: Aug 13, 2022, 05:29 UTC

1 34258U 06006BZ  22225.22863971  .00000592  00000-0  11984-2 0  9996
2 34258  51.8999 213.7018 5068452 209.6597 108.3077  5.24337819270945

Traccia BREEZE-M DEB in tempo reale con AllMySat

Download on the App Store